Regional Weather Roundup
Issued by NWS Green Bay, WI

Home | Current Version | Previous Version | Graphics & Text | Print | Product List | Glossary Off
Versions: 1 2 3 4 5 6 7 8 9 10 11 12 13 14 15 16 17 18 19 20 21 22 23 24 25 26 27 28 29 30 31 32 33 34 35 36 37 38 39 40 41 42 43 44 45 46 47 48 49 50

000
ASUS43 KGRB 060710
RWRGRB

NORTH-CENTRAL AND NORTHEAST WISCONSIN REGIONAL WEATHER ROUNDUP
NATIONAL WEATHER SERVICE GREEN BAY WI
200 AM CDT WED MAY 06 2015

WIZ005-009-010>012-018-019-060800-
NORTH CENTRAL WISCONSIN

CITY           SKY/WX    TMP DP  RH WIND       PRES   REMARKS
IRONWOOD       PTCLDY    55  25  30 E3        30.17S
MANITOWISH WTR PTCLDY    50  29  43 SE6       30.20F
ARBOR VITAE    PTCLDY    52  30  42 SE3       30.21F
EAGLE RIVER    PTCLDY    39  29  68 CALM      30.22F
LAND O LAKES   PTCLDY    37  33  85 CALM      30.23F
RHINELANDER    MOCLDY    49  28  44 SE5       30.22F
PHILLIPS       CLOUDY    54  26  35 SE7       30.19F
ANTIGO         CLOUDY    50  32  49 SE3       30.24S
TOMAHAWK       CLOUDY    51  26  36 SE5       30.21F
MERRILL        CLOUDY    54  29  39 S8        30.22F
$$

WIZ013-073-060800-
NORTHEAST WISCONSIN

CITY           SKY/WX    TMP DP  RH WIND       PRES   REMARKS
IRON MOUNTAIN  PTCLDY    39  31  72 CALM      30.24F
MARINETTE      CLOUDY    48  37  66 NE3       30.24F
OCONTO         CLOUDY    47  42  82 CALM      30.23F
$$

WIZ017-030-035>037-045-060800-
CENTRAL WISCONSIN

CITY           SKY/WX    TMP DP  RH WIND       PRES   REMARKS
MEDFORD        CLOUDY    51  39  63 SE8       30.20F
WAUSAU         LGT RAIN  50  39  66 E7        30.21F
MOSINEE        CLOUDY    50  37  62 E5        30.23F
MARSHFIELD     LGT RAIN  52  45  77 E9        30.21F
WISC RAPIDS    LGT RAIN  51  46  83 E5        30.22F
STEVENS POINT  CLOUDY    51  44  77 CALM      30.23S
WAUPACA        LGT RAIN  54  45  72 E6        30.23S
SHAWANO        CLOUDY    55  37  50 CALM      30.24F
CLINTONVILLE   CLOUDY    54  34  47 E3        30.23F
$$

WIZ038-039-048-051-060800-
FOX VALLEY

CITY           SKY/WX    TMP DP  RH WIND       PRES   REMARKS
NWS GREEN BAY  CLOUDY    53  41  63 CALM      30.23F
APPLETON       LGT RAIN  52  34  50 SE6       30.23F
OSHKOSH        CLOUDY    51  43  74 E3        30.22F
FOND DU LAC    LGT RAIN  50  45  83 N5        30.22F
$$

WIZ022-050-052-060800-
EAST CENTRAL WISCONSIN

CITY           SKY/WX    TMP DP  RH WIND       PRES   REMARKS
STURGEON BAY   CLOUDY    50  28  43 E6        30.26F
MANITOWOC      CLOUDY    49  40  71 CALM      30.24F
SHEBOYGAN      LGT RAIN  47  42  83 CALM      30.23F
$$

LMZ563-521-522-541>543-060800-
LAKESHORE

STATION/POSITION TIME  TEMP    WIND        PRES    VSBY  WAVE
                       AIR SEA DIR/SP/G                  HT/PER
                 (UTC) (F)     (DEG/KT/KT) (MB)    (MI)  (FT/S)
SHEBOYGAN LKSHOR 0700   47      20/  4/  5 1024.3F
KEWAUNEE LKSHORE 0700   47      CALM  /  2   N/A
NORTHPORT PIER   0700   49     150/  3/  4 1024.4S
CHAMBERS ISLAND  0700   47      80/  3/  3 1024.4F
MENOMINEE LKSHOR 0700   50      20/  4/  5   N/A
$$



USA.gov is the U.S. government's official web portal to all federal, state and local government web resources and services.